Kalispell, MT

9:06 AM MDT on April 23, 2017 (GMT -0600)
Glacier Park International

Weather History for KGPI - June, 2013

Change the Weather History Date:

Wednesday, June 5, 2013

  Actual Average Record
Temperature  
Mean Temperature 57 °F 56 °F  
Max Temperature 75 °F 70 °F 90 °F (2016)
Min Temperature 38 °F 43 °F 32 °F (2001)
Degree Days  
Heating Degree Days 8 9  
Month to date heating degree days 52 46  
Since 1 June heating degree days 52 46  
Since 1 July heating degree days 7318 7869  
Cooling Degree Days 0 0  
Month to date cooling degree days 0 0  
Year to date cooling degree days 0 3  
Since 1 June cooling degree days 0 0  
Growing Degree Days 6 (Base 50)    
Moisture  
Dew Point 42 °F    
Average Humidity 63    
Maximum Humidity 93    
Minimum Humidity 33    
Precipitation  
Precipitation 0.00 in 0.09 in 0.72 in (2012)
Month to date precipitation 0.19 0.45  
Year to date precipitation 6.49 7.06  
Snow  
Snow 0.00 in - - ()
Month to date snowfall 0.0  
Year to date snowfall 10.1  
Since 1 July snowfall 18.9  
Snow Depth 0.00 in    
Sea Level Pressure  
Sea Level Pressure 30.05 in    
Wind  
Wind Speed 6 mph (SSE)    
Max Wind Speed 17 mph    
Max Gust Speed 22 mph    
Visibility 10 miles    
Events      
T = Trace of Precipitation, MM = Missing Value Source: NWS Daily Summary

Daily Weather History Graph

Daily Weather History Graph

Search for Another Location

Airport or City:

Trip Planner

Search our weather history database for the weather conditions in past years. The results will help you decide how hot, cold, wet, or windy it might be!

Date:

Astronomy

Jun. 05, 2013 Rise Set
Actual Time 5:37 AM MDT 9:33 PM MDT
Civil Twilight 4:57 AM MDT 10:14 PM MDT
Nautical Twilight 4:00 AM MDT 11:11 PM MDT
Astronomical Twilight 2:31 AM MDT 12:41 AM MDT
Moon 3:56 AM MDT (6/5) 6:54 PM MDT (6/5)
Length of Visible Light 17h 17m
Length of Day
15h 55m
Waning Crescent, 8% of the Moon is Illuminated
Jun 5
Waning Crescent
Jun 8
New
Jun 16
First Quarter
Jun 23
Full
Jun 29
Last Quarter

Hourly Weather History & Observations

Time (MDT) Temp. Windchill Dew Point Humidity Pressure Visibility Wind Dir Wind Speed Gust Speed Precip Events Conditions
12:55 AM 43.0 °F - 39.9 °F 89% 30.14 in 10.0 mi Calm Calm - N/A   Clear
1:55 AM 41.0 °F 38.0 °F 39.0 °F 93% 30.14 in 10.0 mi West 4.6 mph - N/A   Clear
2:55 AM 39.0 °F 36.8 °F 37.0 °F 93% 30.14 in 10.0 mi WNW 3.5 mph - N/A   Clear
3:55 AM 39.0 °F - 37.0 °F 93% 30.14 in 10.0 mi Calm Calm - N/A   Clear
4:55 AM 39.0 °F - 37.0 °F 93% 30.14 in 10.0 mi Calm Calm - N/A   Clear
5:55 AM 39.0 °F 36.8 °F 37.0 °F 93% 30.14 in 10.0 mi WNW 3.5 mph - N/A   Clear
6:55 AM 45.0 °F - 41.0 °F 86% 30.13 in 10.0 mi Calm Calm - N/A   Clear
7:55 AM 52.0 °F - 41.0 °F 66% 30.11 in 10.0 mi North 4.6 mph - N/A   Clear
8:55 AM 55.9 °F - 39.0 °F 53% 30.10 in 10.0 mi ENE 6.9 mph - N/A   Clear
9:55 AM 57.9 °F - 41.0 °F 53% 30.11 in 10.0 mi SSE 5.8 mph - N/A   Clear
10:55 AM 61.0 °F - 41.0 °F 48% 30.10 in 10.0 mi Calm Calm - N/A   Clear
11:55 AM 64.9 °F - 41.0 °F 42% 30.09 in 10.0 mi South 8.1 mph - N/A   Clear
12:55 PM 68.0 °F - 42.1 °F 39% 30.06 in 10.0 mi South 10.4 mph - N/A   Clear
1:55 PM 72.0 °F - 42.1 °F 34% 30.04 in 10.0 mi South 9.2 mph - N/A   Clear
2:55 PM 72.0 °F - 41.0 °F 33% 30.01 in 10.0 mi SSE 12.7 mph - N/A   Clear
3:55 PM 73.9 °F - 42.1 °F 32% 29.99 in 10.0 mi SSE 15.0 mph - N/A   Clear
4:55 PM 73.0 °F - 44.1 °F 35% 29.97 in 10.0 mi South 15.0 mph 20.7 mph N/A   Clear
5:55 PM 72.0 °F - 45.0 °F 38% 29.96 in 10.0 mi South 9.2 mph - N/A   Scattered Clouds
6:55 PM 73.9 °F - 45.0 °F 35% 29.93 in 10.0 mi SSE 10.4 mph - N/A   Mostly Cloudy
7:55 PM 71.1 °F - 46.9 °F 42% 29.92 in 10.0 mi SE 9.2 mph 19.6 mph N/A   Clear
8:55 PM 70.0 °F - 46.0 °F 42% 29.92 in 10.0 mi Calm Calm - N/A   Clear
9:55 PM 62.1 °F - 48.9 °F 62% 29.94 in 10.0 mi Calm Calm - N/A   Clear
10:55 PM 57.0 °F - 48.9 °F 74% 29.96 in 10.0 mi NNE 4.6 mph - N/A   Clear
11:55 PM 54.0 °F - 48.0 °F 80% 29.96 in 10.0 mi Calm Calm - N/A   Clear